STARLINK-1789 (46690 NORAD) Tracking and Keplerian Element Data

This shows tracking and keplerian element data for the satellite.

Feedback or suggestion? Click here.




ElementValue
Catalog46690
NameSTARLINK-1789
Epoch Orbit182
Epoch Day20.91667824
Epoch Year2021
RAAN6.6431
Inclination53.056
Eccentricity0.0001176
Argument of Perigee74.8711
Mean Anonmoly202.6647
Mean Motion15.50729297
Decay Rate-0.0108419
L11 46690U 20073W 21020.91667824 -.01084190 00000-0 -20459-1 0 9991
L22 46690 53.0560 6.6431 0001176 74.8711 202.6647 15.50729297 1824

Live tracking and technical data element details for STARLINK-1789 (NORAD 46690). STARLINK-1789 can be tracked NOW for your location showing map with azimuth and elevation plus other details from your city location.

Track the satellite on the map from your city or location and see movement details for azimuth, elevation, latitude, longitude, range, height, and movement on the map or in text.







IsCatalogInMostPopularTable: catalog: 46690, numindb: 33
Update: records affected: 1



GetName: 46690 STARLINK-1789

Hit Count: updated at: Fri, 22 Jan 2021 16:27:06 GMT